Location: Seale
(32.2974°N, 85.1688°W)
Time: 19:59:15
(UTC+00:00)

Hubble Space Telescope - Visible Passes

Search period start: 22 January 2021 00:00
Search period end: 01 February 2021 00:00
Orbit: 536 x 539 km, 28.5° (Epoch: 22 January)

Date Brightness Start Highest point End Pass type
(mag) Time Alt. Az. Time Alt. Az. Time Alt. Az.
22 Jan 1.3 00:13:45 10° WSW 00:17:45 49° S 00:19:55 24° ESE visible
22 Jan 3.9 01:54:51 10° W 01:55:14 12° WSW 01:55:14 12° WSW visible
23 Jan 1.4 00:02:54 10° WSW 00:06:54 50° S 00:09:49 17° ESE visible
23 Jan 3.6 01:44:04 10° WSW 01:45:09 16° WSW 01:45:09 16° WSW visible
23 Jan 1.5 23:52:03 10° WSW 23:56:03 49° S 23:59:46 12° ESE visible
24 Jan 3.2 01:33:20 10° WSW 01:35:06 20° WSW 01:35:06 20° WSW visible
24 Jan 1.6 23:41:14 10° W 23:45:12 46° S 23:49:10 10° ESE visible
25 Jan 2.8 01:22:38 10° WSW 01:25:08 23° SW 01:25:08 23° SW visible
25 Jan 1.8 23:30:25 10° W 23:34:20 43° S 23:38:16 10° ESE visible
26 Jan 2.8 01:12:00 10° WSW 01:15:08 21° SSW 01:15:15 21° SSW visible
27 Jan 3.0 01:01:28 10° WSW 01:04:13 17° SSW 01:05:28 15° S visible
28 Jan 3.4 00:51:06 10° SW 00:53:17 14° SSW 00:55:28 10° S visible
29 Jan 3.6 00:41:12 10° SW 00:42:21 11° SSW 00:43:30 10° S visible
